Location: Cardiff
(53.7833°N, 113.6000°W)
Time: 14:50:50
(UTC+00:00)

RS-15 - Pass Details

Date: 08 December 2023
Orbit: 1893 x 2151 km, 64.8° (Epoch: 27 February)

Event Time Altitude Azimuth Distance (km) Brightness Sun altitude
Exits shadow 09:27:07 47° 58° (ENE) 2,466 8.6 -51.5°
Drops below altitude 10° 09:35:26 10° 96° (E) 4,337 10.1 -50.5°
Sets 09:38:47 0° 102° (ESE) 5,311 10.7 -50.1°
